Regional Weather Roundup
Issued by NWS Sioux Falls, SD

Home | Current Version | Previous Version | Graphics & Text | Print | Product List | Glossary Off
Versions: 1 2 3 4 5 6 7 8 9 10 11 12 13 14 15 16 17 18 19 20 21 22 23 24 25 26 27 28 29 30 31 32 33 34 35 36 37 38 39 40 41 42 43 44 45 46 47 48 49 50

000
ASUS43 KFSD 270302
RWRFSD

WEATHER ROUNDUP FOR SE SOUTH DAKOTA/SW MINNESOTA/NW IOWA
NATIONAL WEATHER SERVICE SIOUX FALLS SD
1000 PM CDT TUE AUG 26 2014

NOTE: "FAIR" INDICATES FEW OR NO CLOUDS BELOW 12,000 FEET WITH NO
SIGNIFICANT WEATHER AND OR OBSTRUCTIONS TO VISIBILITY.


SDZ038>040-050-052>070-270400-
SOUTHEAST SOUTH DAKOTA

CITY           SKY/WX    TMP DP  RH WIND       PRES   REMARKS
CHAMBERLAIN    CLEAR     62  57  85 E6        30.14R
HURON          CLOUDY    61  57  87 NE8       30.14R
MADISON        MOCLDY    59  59 100 SE6       30.18R
MITCHELL       CLEAR     63  59  87 E6        30.15R
SIOUX FALLS    PTCLDY    66  57  72 SE8       30.16R
WINNER         FAIR      67  58  72 E12       30.12R
YANKTON        CLEAR     64  61  88 E5        30.14S
$$

MNZ071-072-080-081-089-090-097-098-270400-
SOUTHWEST MINNESOTA

CITY           SKY/WX    TMP DP  RH WIND       PRES   REMARKS
FAIRMONT       CLEAR     57  54  88 CALM      30.18R
JACKSON        CLEAR     59  54  82 E5        30.19S
LUVERNE        PTCLDY    63  59  88 E6        30.17S
MARSHALL       MOCLDY    64  55  72 E7        30.16R
MONTEVIDEO     CLOUDY    61  57  88 E5        30.18R
PIPESTONE      PTCLDY    61  57  88 SE3       30.18R
REDWOOD FALLS  MOCLDY    65  57  75 CALM      30.16R
TRACY          PTCLDY    64  59  81 CALM      30.17R
WINDOM         PTCLDY    61  55  82 CALM      30.18R
WORTHINGTON    CLEAR     59  57  94 SE6       30.19R
$$

IAZ001>003-012>014-020>022-031-032-NEZ013-014-SDZ071-270400-
NORTHWEST IOWA

CITY           SKY/WX    TMP DP  RH WIND       PRES   REMARKS
CHEROKEE       CLEAR     62  61  99 CALM      30.17R
DENISON        PTCLDY    66  64  94 NE6       30.14R
ESTHERVILLE    MOCLDY    61  57  87 CALM      30.18R
LE MARS        CLEAR     66  61  82 E7        30.16S
ORANGE CITY    CLEAR     64  61  88 CALM      30.18R
SHELDON        CLEAR     61  59  94 E5        30.17R
SIOUX CITY     CLEAR     67  61  81 NE6       30.15R
SPENCER        CLEAR     62  59  90 CALM      30.18R
STORM LAKE     PTCLDY    63  63 100 NE6       30.17R
$$

ABBREVIATIONS USED IN REMARKS
   TC - TEMPERATURE IN CELSIUS
  WCI - WIND CHILL INDEX
   HX - HEAT INDEX
  VSB - VISIBILITY



USA.gov is the U.S. government's official web portal to all federal, state and local government web resources and services.